Total_Precipitation_Accumulation
0.88 0.80 0.67 0.68 0.64 0.68 0.76 0.81 0.85 0.89 0.95 0.91 0.88 0.92 0.94 0.90 0.82 0.80 0.98 1.26 1.74 2.12 2.11 1.96 1.77 1.75 1.72 1.55 1.57 1.74 1.90 2.00 1.96 1.95 2.06 2.14 2.05 1.91 1.82 1.72 1.73 1.66 1.55
0.79 0.81 0.76 0.76 0.77 0.76 0.76 0.76 0.75 0.89 0.96 0.99 0.97 0.96 0.94 0.84 0.83 0.91 1.07 1.14 1.22 1.59 2.16 2.27 2.18 2.06 1.95 1.72 1.65 1.75 1.85 1.88 1.83 1.89 1.94 1.95 1.85 1.65 1.53 1.65 1.84 1.63 1.43
0.73 0.78 0.82 0.83 0.83 0.84 0.83 0.86 0.87 0.96 0.97 1.05 1.09 0.96 0.90 0.87 0.83 0.89 0.98 1.08 0.90 0.94 1.45 2.06 2.31 2.19 2.14 2.01 1.80 1.78 1.83 1.90 1.79 1.91 1.90 1.88 1.70 1.57 1.46 1.62 1.80 1.69 1.48
0.74 0.82 0.85 0.90 0.95 0.86 0.84 0.94 1.00 1.09 1.09 1.16 1.19 1.02 0.86 0.94 0.89 0.89 1.02 1.05 1.03 0.95 1.10 1.34 1.63 1.84 2.17 2.33 2.14 2.03 1.93 1.83 1.68 1.77 1.83 1.79 1.63 1.54 1.44 1.60 1.65 1.66 1.62
0.93 1.00 1.04 1.07 1.09 1.10 1.03 0.94 0.99 1.12 1.24 1.28 1.15 1.06 0.95 0.96 0.98 0.95 1.12 1.15 1.13 1.13 1.19 1.11 1.13 1.29 1.64 2.13 2.30 2.25 2.03 1.77 1.59 1.63 1.65 1.53 1.56 1.53 1.39 1.46 1.52 1.56 1.63
1.19 1.31 1.30 1.23 1.30 1.40 1.44 1.25 1.30 1.28 1.25 1.34 1.19 1.12 1.10 1.04 1.04 1.10 1.16 1.28 1.41 1.27 1.27 1.20 1.10 0.92 1.14 1.54 1.92 2.22 2.24 2.08 1.81 1.70 1.74 1.49 1.41 1.47 1.39 1.32 1.38 1.47 1.50
1.53 1.71 1.69 1.66 1.66 1.66 1.63 1.58 1.73 1.68 1.43 1.35 1.55 1.54 1.38 1.21 1.16 1.15 1.21 1.44 1.56 1.48 1.50 1.43 1.30 1.13 1.01 1.00 1.23 1.84 2.20 2.34 2.24 1.98 1.97 1.79 1.46 1.35 1.33 1.31 1.33 1.43 1.49
1.76 1.80 2.01 2.11 2.09 2.21 2.19 2.01 2.16 2.20 1.82 1.58 1.86 2.19 1.91 1.68 1.27 1.18 1.31 1.37 1.48 1.56 1.61 1.48 1.33 1.22 1.17 1.09 0.93 1.28 1.61 2.11 2.37 2.18 2.22 2.21 1.71 1.40 1.27 1.27 1.32 1.38 1.50
1.91 1.93 2.05 2.22 2.24 2.32 2.44 2.52 2.46 2.57 2.38 1.98 1.85 2.15 2.10 1.95 1.74 1.38 1.33 1.41 1.58 1.63 1.67 1.65 1.48 1.24 1.21 1.23 1.04 0.97 1.14 1.38 1.90 2.18 2.30 2.46 2.06 1.59 1.30 1.25 1.26 1.25 1.39
2.10 2.18 2.20 2.33 2.34 2.36 2.47 2.57 2.53 2.68 2.77 2.38 2.07 1.86 1.71 1.72 1.86 1.68 1.47 1.43 1.59 1.62 1.62 1.64 1.67 1.50 1.33 1.35 1.22 0.99 0.98 1.06 1.38 1.92 2.20 2.45 2.32 1.84 1.45 1.36 1.38 1.32 1.37
2.21 2.25 2.32 2.50 2.48 2.46 2.45 2.65 2.70 2.80 2.73 2.65 2.50 2.32 2.16 1.92 1.58 1.70 1.77 1.64 1.54 1.44 1.49 1.62 1.77 1.72 1.56 1.48 1.55 1.21 0.97 0.98 1.09 1.58 1.97 2.43 2.54 2.20 1.91 1.77 1.64 1.54 1.38
2.24 2.14 2.06 2.21 2.28 2.32 2.32 2.50 2.67 2.81 2.79 2.81 2.73 2.44 2.39 2.26 1.91 1.85 1.75 1.66 1.68 1.49 1.42 1.50 1.57 1.57 1.58 1.55 1.45 1.41 1.12 0.97 1.00 1.25 1.63 2.00 2.47 2.43 2.32 2.25 2.04 1.93 1.74
2.08 2.11 2.00 1.98 2.02 1.98 2.03 2.15 2.22 2.29 2.44 2.60 2.51 2.30 2.26 2.10 2.06 2.09 2.00 1.78 1.63 1.41 1.43 1.42 1.41 1.41 1.40 1.45 1.49 1.54 1.17 0.97 0.95 1.06 1.33 1.59 1.96 2.28 2.45 2.40 2.28 2.28 2.19
1.76 1.85 1.85 1.79 1.83 1.87 1.88 1.97 2.00 2.00 2.03 2.11 2.10 2.19 2.26 2.11 2.03 1.98 2.03 2.19 1.97 1.73 1.57 1.41 1.40 1.43 1.39 1.36 1.51 1.55 1.22 1.07 0.95 0.91 1.03 1.27 1.56 1.94 2.20 2.24 2.29 2.40 2.38
1.33 1.40 1.49 1.56 1.65 1.69 1.75 1.91 2.00 1.99 1.95 1.92 2.01 2.08 2.04 2.02 2.01 1.90 1.88 2.05 2.16 2.01 1.86 1.67 1.53 1.46 1.48 1.40 1.48 1.32 1.26 1.19 1.04 0.99 1.00 0.97 1.12 1.45 1.66 1.84 2.01 2.02 2.14
1.02 1.06 1.17 1.33 1.56 1.68 1.71 1.79 1.86 1.95 1.98 1.93 2.02 2.12 2.15 2.15 2.16 2.09 1.96 1.95 1.92 1.97 1.88 1.67 1.48 1.40 1.52 1.39 1.50 1.31 1.25 1.40 1.20 1.12 1.04 0.93 0.91 0.99 1.12 1.30 1.50 1.63 1.66
0.86 0.98 1.02 1.17 1.32 1.50 1.68 1.82 1.84 1.85 1.89 1.88 1.82 1.92 2.04 2.13 2.25 2.27 2.25 2.13 2.00 1.95 1.87 1.73 1.53 1.42 1.57 1.58 1.50 1.44 1.32 1.25 1.24 1.23 1.10 1.05 0.98 0.87 0.93 1.02 1.20 1.34 1.43
0.70 0.77 0.91 1.11 1.23 1.31 1.36 1.44 1.52 1.58 1.63 1.69 1.67 1.64 1.71 1.81 1.97 2.12 2.21 2.15 2.14 2.03 1.94 1.94 1.77 1.53 1.44 1.52 1.56 1.64 1.54 1.30 1.27 1.36 1.29 1.19 1.11 0.95 0.86 0.89 1.00 1.06 1.10
0.69 0.72 0.85 1.00 1.06 1.12 1.16 1.17 1.28 1.37 1.38 1.38 1.45 1.41 1.42 1.50 1.65 1.80 1.90 1.98 2.09 2.11 2.11 2.02 1.94 1.77 1.54 1.55 1.62 1.64 1.67 1.72 1.48 1.40 1.40 1.34 1.25 1.14 1.05 0.97 0.94 0.95 0.92
0.73 0.75 0.90 0.98 1.00 0.96 1.05 1.08 1.14 1.17 1.14 1.09 1.14 1.15 1.19 1.24 1.33 1.47 1.62 1.83 2.01 2.11 2.18 2.16 2.06 1.84 1.68 1.66 1.64 1.66 1.75 1.82 1.79 1.56 1.44 1.37 1.40 1.35 1.20 1.10 1.03 1.00 1.00
0.76 0.78 0.83 0.93 0.97 0.95 0.99 1.05 1.04 0.98 0.98 0.97 0.92 0.83 0.85 0.93 0.97 1.06 1.10 1.39 1.64 1.86 1.98 2.05 2.03 1.88 1.68 1.58 1.46 1.49 1.63 1.81 1.88 1.83 1.74 1.46 1.39 1.35 1.30 1.24 1.15 1.07 1.03
0.64 0.66 0.70 0.86 0.97 0.87 0.98 0.98 0.90 0.83 0.80 0.85 0.81 0.74 0.72 0.76 0.69 0.67 0.71 0.93 1.22 1.42 1.59 1.78 1.84 1.72 1.58 1.51 1.56 1.55 1.55 1.61 1.65 1.58 1.58 1.59 1.51 1.42 1.35 1.29 1.29 1.26 1.18
0.56 0.60 0.63 0.78 0.87 0.95 0.89 0.74 0.78 0.77 0.78 0.82 0.84 0.86 0.78 0.73 0.82 0.73 0.67 0.74 0.82 0.93 1.09 1.36 1.59 1.57 1.66 1.60 1.51 1.45 1.46 1.50 1.50 1.56 1.56 1.57 1.48 1.40 1.30 1.26 1.38 1.30 1.30
0.54 0.57 0.60 0.63 0.71 0.84 0.78 0.63 0.67 0.66 0.77 0.86 0.90 0.97 0.99 0.93 0.91 0.98 0.92 0.92 0.89 0.81 0.89 0.81 1.02 1.39 1.53 1.60 1.55 1.58 1.67 1.60 1.48 1.51 1.53 1.55 1.48 1.38 1.24 1.17 1.26 1.17 1.11
0.58 0.58 0.61 0.62 0.67 0.72 0.69 0.62 0.64 0.70 0.84 0.86 0.82 0.93 0.98 0.94 1.00 1.06 1.16 1.22 1.15 0.99 1.10 1.10 1.00 1.11 1.25 1.31 1.42 1.52 1.59 1.52 1.48 1.40 1.29 1.26 1.23 1.26 1.31 1.23 1.19 1.22 1.12
0.57 0.58 0.56 0.54 0.56 0.58 0.64 0.56 0.67 0.77 0.82 0.84 0.85 0.91 1.06 0.99 0.97 0.94 1.02 1.16 1.14 1.01 0.89 0.92 0.89 0.78 0.72 0.83 1.03 1.20 1.49 1.61 1.56 1.46 1.27 1.20 1.23 1.21 1.25 1.18 1.08 1.10 1.09